2025-274D

Last updated on Wed Dec 31 2025 00:02:07 GMT+0000 (Coordinated Universal Time)

1 66653U 25274D 25364.45593582 .00003582 00000+0 35843-3 0 9990 2 66653 97.7400 291.3323 0012300 189.6302 170.4683 14.91998059 5046
UTC large
Height (km)
Speed (km/s)
/
Latitude / Longitude
Inclination (degrees)
Orbital Period (minutes)
Azimuth
Elevation
Range (km)
Doppler Factor

Next 0 passes for location: London (51.5072 / 0.1276)

Sorry there are no passes over London.